| time (UTC) | temp C | wind direction | speed KPH | gust KPH | rain 1hr cm | rain 24hr cm | rain mn cm | humidity % | barometer mb |
| 20260505223029 | 25 | 327 | 9.7 | 20.9 | 0.00 | 0.00 | 0.00 | 49 | 1013.6 |
| 20260505221532 | 25 | 330 | 11.3 | 19.3 | 0.00 | 0.00 | 0.00 | 49 | 1013.8 |
| 20260505214532 | 24 | 330 | 9.7 | 17.7 | 0.00 | 0.00 | 0.00 | 49 | 1014.0 |
| 20260505211530 | 25 | 322 | 8.0 | 14.5 | 0.00 | 0.00 | 0.00 | 48 | 1014.3 |
| 20260505210029 | 25 | 323 | 8.0 | 17.7 | 0.00 | 0.00 | 0.00 | 47 | 1014.5 |
| 20260505204530 | 25 | 324 | 8.0 | 16.1 | 0.00 | 0.00 | 0.00 | 47 | 1014.6 |
| 20260505201528 | 25 | 337 | 9.7 | 19.3 | 0.00 | 0.00 | 0.00 | 47 | 1014.7 |
| 20260505200032 | 24 | 342 | 9.7 | 17.7 | 0.00 | 0.00 | 0.00 | 48 | 1014.8 |
| 20260505194529 | 23 | 336 | 8.0 | 16.1 | 0.00 | 0.00 | 0.00 | 49 | 1014.9 |
| 20260505193147 | 22 | 318 | 8.0 | 16.1 | 0.00 | 0.00 | 0.00 | 52 | 1014.9 |
| 20260505191537 | 22 | 319 | 8.0 | 14.5 | 0.00 | 0.00 | 0.00 | 51 | 1015.0 |
| 20260505190029 | 23 | 338 | 8.0 | 17.7 | 0.00 | 0.00 | 0.00 | 51 | 1015.1 |
| 20260505184529 | 22 | 327 | 8.0 | 16.1 | 0.00 | 0.00 | 0.00 | 52 | 1015.2 |
| 20260505183030 | 22 | 318 | 6.4 | 20.9 | 0.00 | 0.00 | 0.00 | 56 | 1015.2 |
| 20260505181530 | 21 | 314 | 6.4 | 16.1 | 0.00 | 0.00 | 0.00 | 58 | 1015.2 |
| 20260505174531 | 19 | 359 | 3.2 | 12.9 | 0.00 | 0.00 | 0.00 | 64 | 1015.3 |
| 20260505173030 | 18 | 321 | 4.8 | 14.5 | 0.00 | 0.00 | 0.00 | 65 | 1015.2 |
| 20260505171531 | 18 | 334 | 4.8 | 14.5 | 0.00 | 0.00 | 0.00 | 66 | 1015.2 |
| 20260505170034 | 18 | 316 | 4.8 | 9.7 | 0.00 | 0.00 | 0.00 | 67 | 1015.2 |
| 20260505164530 | 17 | 340 | 4.8 | 12.9 | 0.00 | 0.00 | 0.00 | 67 | 1015.2 |
| 20260505163030 | 17 | 3 | 3.2 | 8.0 | 0.00 | 0.00 | 0.00 | 67 | 1015.2 |
| 20260505161530 | 18 | 45 | 3.2 | 9.7 | 0.00 | 0.00 | 0.00 | 67 | 1015.2 |
| 20260505153029 | 16 | 74 | 3.2 | 8.0 | 0.00 | 0.00 | 0.00 | 77 | 1015.0 |
| 20260505151531 | 15 | 87 | 3.2 | 9.7 | 0.00 | 0.00 | 0.00 | 81 | 1014.9 |
| 20260505130147 | 9 | 129 | 3.2 | 4.8 | 0.00 | 0.00 | 0.00 | 90 | 1013.8 |
| 20260505124530 | 9 | 139 | 3.2 | 6.4 | 0.00 | 0.00 | 0.00 | 89 | 1013.6 |
| 20260505123031 | 9 | 136 | 0.0 | 6.4 | 0.00 | 0.00 | 0.00 | 88 | 1013.5 |
| 20260505121529 | 9 | 183 | 3.2 | 4.8 | 0.00 | 0.00 | 0.00 | 87 | 1013.4 |
| 20260505120031 | 10 | 135 | 1.6 | 4.8 | 0.00 | 0.00 | 0.00 | 86 | 1013.4 |
| 20260505114529 | 10 | 135 | 1.6 | 4.8 | 0.00 | 0.00 | 0.00 | 85 | 1013.3 |
| 20260505113032 | 11 | 129 | 1.6 | 4.8 | 0.00 | 0.00 | 0.00 | 83 | 1013.2 |
| 20260505111532 | 11 | 215 | 1.6 | 6.4 | 0.00 | 0.00 | 0.00 | 81 | 1013.1 |
| 20260505101529 | 12 | 151 | 3.2 | 6.4 | 0.00 | 0.00 | 0.00 | 78 | 1012.7 |
| 20260505100038 | 12 | 180 | 0.0 | 8.0 | 0.00 | 0.00 | 0.00 | 77 | 1012.6 |
| 20260505094531 | 13 | 162 | 3.2 | 8.0 | 0.00 | 0.00 | 0.00 | 75 | 1012.6 |
| 20260505093031 | 13 | 292 | 0.0 | 0.0 | 0.00 | 0.00 | 0.00 | 74 | 1012.5 |
| 20260505091605 | 13 | 292 | 0.0 | 1.6 | 0.00 | 0.00 | 0.00 | 74 | 1012.4 |
| 20260505090030 | 13 | 274 | 1.6 | 4.8 | 0.00 | 0.00 | 0.00 | 73 | 1012.3 |
| 20260505084606 | 14 | 314 | 0.0 | 3.2 | 0.00 | 0.00 | 0.00 | 72 | 1012.3 |
| 20260505081531 | 14 | 197 | 0.0 | 4.8 | 0.00 | 0.00 | 0.00 | 72 | 1012.3 |
| 20260505080031 | 14 | 106 | 0.0 | 4.8 | 0.00 | 0.00 | 0.00 | 71 | 1012.2 |
| 20260505074529 | 13 | 102 | 0.0 | 3.2 | 0.00 | 0.00 | 0.00 | 71 | 1012.2 |
| 20260505073030 | 13 | 112 | 0.0 | 4.8 | 0.00 | 0.00 | 0.00 | 71 | 1012.1 |
| 20260505071605 | 14 | 154 | 1.6 | 6.4 | 0.00 | 0.00 | 0.00 | 70 | 1012.0 |
| 20260505063029 | 15 | 194 | 3.2 | 6.4 | 0.00 | 0.00 | 0.00 | 64 | 1011.8 |
| 20260505061529 | 15 | 160 | 0.0 | 3.2 | 0.00 | 0.00 | 0.00 | 63 | 1011.7 |
| 20260505060030 | 16 | 215 | 0.0 | 4.8 | 0.00 | 0.00 | 0.00 | 61 | 1011.7 |
| 20260505054531 | 16 | 256 | 1.6 | 8.0 | 0.00 | 0.00 | 0.00 | 60 | 1011.6 |
| 20260505053032 | 16 | 272 | 4.8 | 11.3 | 0.00 | 0.00 | 0.00 | 59 | 1011.5 |
| 20260505051527 | 17 | 292 | 0.0 | 0.0 | 0.00 | 0.00 | 0.00 | 57 | 1011.4 |
| 20260505041530 | 19 | 256 | 4.8 | 9.7 | 0.00 | 0.00 | 0.00 | 51 | 1010.8 |
| 20260505040043 | 20 | 261 | 8.0 | 16.1 | 0.00 | 0.00 | 0.00 | 50 | 1010.6 |
| 20260505034528 | 20 | 272 | 8.0 | 14.5 | 0.00 | 0.00 | 0.00 | 50 | 1010.4 |
| 20260505033030 | 20 | 265 | 9.7 | 22.5 | 0.00 | 0.00 | 0.00 | 48 | 1010.3 |
| 20260505031530 | 21 | 267 | 6.4 | 12.9 | 0.00 | 0.00 | 0.00 | 47 | 1010.0 |
| 20260505030032 | 22 | 268 | 8.0 | 17.7 | 0.00 | 0.00 | 0.00 | 44 | 1009.8 |
| 20260505024531 | 22 | 271 | 11.3 | 22.5 | 0.00 | 0.00 | 0.00 | 43 | 1009.5 |
| 20260505023030 | 22 | 279 | 14.5 | 35.4 | 0.00 | 0.00 | 0.00 | 42 | 1009.4 |
| 20260505021530 | 23 | 282 | 16.1 | 32.2 | 0.00 | 0.00 | 0.00 | 41 | 1009.4 |
| 20260505020030 | 23 | 283 | 17.7 | 27.4 | 0.00 | 0.00 | 0.00 | 39 | 1009.3 |
| 20260505013030 | 25 | 287 | 19.3 | 37.0 | 0.00 | 0.00 | 0.00 | 36 | 1009.2 |
| 20260505011530 | 25 | 281 | 19.3 | 32.2 | 0.00 | 0.00 | 0.00 | 36 | 1009.2 |
| 20260505010033 | 25 | 282 | 17.7 | 30.6 | 0.00 | 0.00 | 0.00 | 37 | 1009.1 |
| 20260505004529 | 25 | 290 | 16.1 | 29.0 | 0.00 | 0.00 | 0.00 | 41 | 1009.3 |
| 20260505003107 | 26 | 306 | 9.7 | 17.7 | 0.00 | 0.00 | 0.00 | 43 | 1009.4 |
| 20260505000030 | 26 | 346 | 14.5 | 27.4 | 0.00 | 0.00 | 0.00 | 43 | 1009.3 |
| 20260504234531 | 26 | 332 | 11.3 | 24.1 | 0.00 | 0.00 | 0.00 | 42 | 1009.4 |
| 20260504233030 | 26 | 336 | 14.5 | 27.4 | 0.00 | 0.00 | 0.00 | 42 | 1009.4 |